Temp
-8 -8 -8 -8 -8 -9 -9 -9 -9 -9 -9 -9 -9 -9 -9 -10 -10 -10 -10 -11 -11 -10 -10 -10 -10 -10 -10 -10 -10 -10 -10 -10 -10 -10 -10 -10 -10 -10 -10 -10 -10 -10 -10 -10 -10
-8 -8 -8 -8 -8 -8 -8 -8 -9 -9 -9 -9 -9 -9 -9 -10 -10 -10 -10 -10 -10 -10 -11 -11 -10 -10 -10 -10 -10 -10 -10 -10 -10 -10 -10 -10 -10 -10 -10 -10 -10 -11 -11 -11 -11
-8 -8 -8 -8 -8 -8 -8 -8 -8 -9 -9 -9 -9 -9 -9 -10 -10 -10 -10 -10 -10 -10 -10 -10 -10 -10 -10 -10 -10 -10 -10 -10 -10 -10 -10 -10 -11 -11 -11 -10 -11 -11 -11 -11 -11
-8 -8 -8 -8 -8 -8 -8 -9 -9 -9 -9 -9 -9 -10 -10 -10 -10 -10 -10 -10 -10 -10 -10 -10 -10 -10 -10 -10 -10 -10 -10 -10 -10 -11 -11 -10 -11 -11 -11 -11 -11 -11 -12 -12 -11
-9 -9 -8 -8 -8 -9 -9 -9 -9 -9 -9 -9 -9 -10 -10 -10 -10 -10 -10 -10 -10 -10 -10 -10 -10 -10 -10 -10 -10 -10 -11 -10 -11 -11 -11 -11 -11 -11 -11 -12 -12 -12 -12 -12 -12
-9 -9 -9 -9 -9 -9 -9 -9 -9 -9 -9 -10 -9 -10 -10 -10 -10 -10 -10 -10 -10 -10 -10 -10 -10 -10 -10 -10 -11 -11 -11 -11 -11 -11 -11 -11 -12 -11 -12 -12 -12 -12 -12 -13 -13
-9 -9 -9 -9 -9 -9 -9 -9 -9 -9 -10 -10 -10 -10 -10 -10 -10 -10 -10 -10 -10 -10 -10 -10 -10 -10 -10 -10 -11 -10 -10 -11 -11 -11 -11 -12 -12 -12 -12 -12 -13 -13 -13 -13 -13
-9 -9 -10 -9 -9 -9 -9 -9 -9 -9 -9 -9 -10 -10 -10 -10 -10 -10 -10 -10 -10 -10 -10 -10 -10 -10 -11 -11 -11 -11 -11 -11 -10 -11 -12 -12 -13 -13 -14 -14 -14 -14 -14 -14 -13
-10 -10 -10 -10 -10 -10 -10 -9 -9 -9 -9 -9 -10 -10 -10 -10 -10 -10 -10 -10 -10 -10 -10 -10 -10 -10 -11 -11 -11 -11 -12 -11 -11 -11 -13 -13 -14 -13 -14 -15 -15 -15 -15 -15 -15
-10 -10 -10 -10 -10 -10 -10 -10 -10 -10 -10 -10 -10 -10 -10 -10 -10 -10 -10 -10 -11 -11 -11 -10 -11 -11 -11 -11 -11 -11 -11 -11 -12 -12 -13 -14 -14 -14 -14 -15 -16 -16 -16 -16 -16
-10 -10 -10 -10 -10 -10 -10 -10 -10 -10 -10 -10 -10 -10 -10 -10 -10 -10 -10 -11 -11 -11 -11 -11 -11 -11 -11 -12 -12 -12 -12 -13 -13 -13 -14 -15 -15 -15 -16 -16 -16 -16 -16 -16 -16
-10 -10 -10 -10 -10 -10 -10 -10 -10 -10 -10 -10 -10 -10 -10 -11 -11 -11 -11 -11 -11 -12 -12 -12 -12 -12 -12 -12 -12 -13 -13 -13 -14 -14 -15 -15 -15 -16 -16 -16 -16 -16 -16 -17 -17
-10 -10 -10 -10 -10 -10 -10 -10 -10 -10 -10 -10 -10 -11 -11 -11 -11 -11 -12 -12 -12 -12 -12 -12 -12 -12 -12 -13 -13 -13 -14 -14 -14 -15 -15 -15 -15 -15 -15 -16 -16 -17 -17 -18 -19
-10 -11 -11 -10 -10 -10 -11 -11 -11 -11 -11 -11 -11 -11 -11 -11 -11 -12 -12 -12 -12 -12 -12 -12 -12 -12 -13 -13 -14 -14 -14 -14 -14 -15 -16 -16 -16 -16 -16 -16 -18 -18 -19 -21 -22
-11 -11 -11 -10 -10 -11 -11 -11 -11 -11 -11 -11 -11 -11 -12 -12 -12 -12 -12 -12 -12 -12 -12 -12 -13 -13 -13 -13 -13 -14 -14 -15 -15 -15 -16 -16 -16 -17 -17 -19 -21 -22 -24 -25 -26
-11 -11 -11 -11 -11 -11 -11 -11 -11 -11 -11 -12 -12 -12 -12 -12 -12 -12 -12 -13 -13 -13 -13 -13 -13 -14 -14 -14 -14 -14 -15 -15 -15 -16 -16 -17 -18 -20 -22 -24 -26 -28 -29 -30 -30
-11 -11 -11 -11 -11 -11 -11 -11 -11 -11 -11 -12 -12 -12 -12 -12 -12 -13 -13 -13 -13 -14 -13 -13 -13 -13 -14 -14 -15 -15 -16 -16 -17 -18 -19 -19 -21 -23 -26 -28 -30 -31 -31 -31 -31
-11 -11 -11 -11 -11 -11 -11 -11 -11 -12 -12 -12 -12 -12 -12 -12 -12 -13 -13 -13 -14 -14 -14 -14 -13 -14 -14 -15 -16 -16 -16 -17 -18 -19 -20 -23 -24 -28 -29 -31 -32 -31 -31 -31 -31
-11 -11 -11 -12 -12 -12 -12 -12 -12 -12 -12 -12 -12 -13 -13 -13 -13 -13 -13 -13 -14 -14 -15 -15 -14 -15 -15 -16 -16 -17 -17 -17 -19 -19 -21 -24 -29 -30 -31 -32 -31 -31 -31 -31 -32
-12 -12 -12 -12 -12 -12 -12 -12 -12 -12 -13 -13 -13 -13 -13 -13 -13 -14 -14 -14 -14 -15 -15 -15 -15 -15 -16 -16 -17 -17 -17 -19 -21 -23 -25 -27 -29 -31 -32 -32 -31 -31 -31 -31 -32
-12 -12 -12 -12 -13 -12 -13 -13 -13 -13 -13 -13 -14 -14 -14 -13 -14 -14 -14 -15 -15 -15 -15 -15 -16 -16 -17 -17 -17 -18 -19 -20 -21 -25 -28 -30 -30 -32 -32 -32 -31 -31 -31 -32 -32
-12 -13 -13 -13 -13 -13 -13 -13 -14 -14 -14 -14 -14 -14 -14 -14 -14 -15 -15 -15 -15 -15 -16 -16 -16 -17 -17 -17 -18 -19 -20 -22 -25 -27 -31 -32 -31 -32 -32 -32 -32 -32 -32 -32 -32
-12 -13 -13 -13 -13 -13 -13 -13 -14 -14 -14 -14 -15 -15 -15 -15 -15 -15 -15 -15 -16 -16 -16 -16 -17 -17 -18 -18 -18 -20 -21 -23 -26 -30 -31 -32 -32 -32 -32 -32 -32 -32 -32 -32 -32
-13 -13 -13 -13 -13 -13 -13 -13 -14 -14 -14 -14 -15 -15 -15 -15 -16 -16 -15 -16 -16 -16 -16 -17 -18 -18 -18 -19 -20 -21 -24 -26 -29 -30 -32 -33 -32 -33 -33 -32 -33 -32 -33 -33 -33
-13 -13 -13 -13 -13 -13 -13 -14 -14 -14 -15 -15 -15 -15 -15 -16 -15 -16 -16 -16 -16 -17 -17 -17 -18 -18 -19 -19 -20 -23 -26 -29 -30 -32 -33 -32 -33 -32 -32 -32 -32 -32 -33 -33 -33
-14 -13 -13 -14 -14 -14 -14 -14 -14 -14 -15 -15 -15 -16 -16 -16 -16 -16 -16 -17 -17 -17 -17 -18 -18 -18 -19 -20 -21 -24 -27 -30 -31 -33 -33 -32 -32 -33 -33 -32 -32 -33 -33 -33 -33
-14 -14 -14 -14 -14 -14 -14 -14 -14 -14 -14 -15 -15 -16 -16 -16 -16 -17 -17 -17 -17 -18 -18 -18 -19 -19 -19 -20 -21 -25 -28 -31 -32 -33 -33 -32 -32 -32 -33 -33 -33 -33 -32 -32 -32
Height
5853 5852 5850 5849 5847 5846 5844 5843 5841 5839 5837 5835 5833 5831 5828 5826 5823 5820 5818 5816 5814 5812 5810 5809 5807 5805 5804 5803 5803 5801 5801 5799 5798 5796 5792 5793 5788 5789 5787 5787 5785 5783 5783 5782 5780
5850 5849 5848 5847 5846 5845 5843 5841 5839 5838 5836 5834 5831 5829 5826 5823 5821 5818 5815 5813 5810 5809 5807 5805 5804 5802 5801 5799 5798 5797 5795 5794 5792 5790 5787 5786 5784 5782 5779 5778 5776 5776 5775 5773 5771
5849 5848 5847 5845 5844 5843 5841 5839 5837 5836 5834 5831 5829 5827 5825 5821 5820 5816 5814 5812 5809 5807 5804 5802 5800 5799 5797 5795 5793 5791 5789 5787 5785 5783 5780 5779 5777 5773 5770 5769 5767 5766 5764 5761 5760
5848 5846 5844 5843 5842 5840 5837 5836 5835 5833 5831 5829 5826 5824 5821 5819 5818 5814 5811 5809 5806 5804 5801 5799 5797 5795 5792 5790 5787 5785 5783 5779 5777 5775 5771 5768 5767 5764 5760 5757 5756 5754 5752 5750 5747
5847 5845 5844 5842 5841 5839 5836 5834 5832 5829 5827 5825 5823 5821 5819 5816 5814 5810 5808 5805 5803 5800 5797 5794 5792 5789 5786 5783 5781 5777 5775 5771 5769 5767 5762 5759 5755 5751 5749 5746 5743 5740 5738 5736 5734
5846 5845 5843 5841 5839 5837 5834 5832 5829 5827 5825 5822 5820 5818 5815 5813 5810 5807 5804 5801 5798 5795 5792 5789 5787 5784 5780 5776 5773 5770 5767 5764 5761 5756 5751 5747 5744 5739 5737 5731 5728 5725 5722 5719 5716
5846 5844 5842 5839 5837 5835 5833 5830 5827 5825 5823 5820 5817 5815 5813 5810 5806 5803 5800 5797 5793 5791 5787 5782 5780 5777 5773 5770 5766 5763 5758 5754 5750 5744 5740 5736 5731 5726 5724 5719 5714 5710 5706 5703 5700
5844 5842 5839 5837 5835 5833 5831 5828 5825 5821 5819 5817 5814 5811 5808 5806 5803 5800 5797 5794 5791 5786 5782 5779 5775 5771 5767 5762 5758 5755 5750 5743 5738 5735 5731 5725 5717 5715 5711 5705 5701 5696 5691 5686 5682
5842 5840 5838 5835 5833 5831 5829 5825 5821 5818 5816 5813 5811 5808 5805 5802 5799 5796 5793 5788 5784 5780 5776 5772 5768 5763 5760 5755 5751 5746 5740 5731 5726 5721 5717 5710 5701 5700 5694 5688 5682 5677 5672 5668 5664
5840 5838 5836 5834 5832 5829 5826 5823 5819 5816 5813 5810 5807 5806 5802 5799 5794 5790 5786 5782 5777 5773 5769 5765 5761 5756 5751 5746 5740 5734 5729 5723 5716 5711 5704 5695 5688 5684 5679 5671 5665 5659 5653 5648 5643
5838 5835 5833 5832 5830 5826 5823 5820 5818 5814 5809 5806 5804 5801 5797 5794 5790 5785 5781 5776 5772 5766 5761 5756 5753 5747 5743 5738 5731 5724 5717 5710 5704 5696 5691 5682 5673 5666 5660 5653 5646 5639 5632 5626 5620
5834 5832 5830 5828 5826 5823 5820 5816 5812 5810 5806 5802 5799 5796 5793 5789 5785 5780 5776 5771 5765 5759 5754 5752 5746 5739 5734 5729 5721 5715 5707 5699 5690 5682 5674 5663 5656 5647 5642 5631 5622 5614 5607 5600 5594
5831 5829 5827 5824 5821 5818 5816 5812 5808 5805 5802 5799 5795 5792 5788 5785 5781 5776 5771 5765 5760 5755 5749 5743 5737 5731 5724 5717 5711 5702 5695 5685 5675 5665 5655 5645 5640 5627 5622 5612 5601 5589 5579 5571 5565
5828 5826 5823 5820 5818 5814 5811 5808 5805 5801 5798 5796 5791 5787 5783 5778 5776 5769 5764 5759 5753 5746 5739 5734 5727 5720 5714 5708 5699 5690 5682 5672 5661 5649 5636 5629 5616 5607 5595 5586 5574 5563 5553 5544 5536
5824 5822 5820 5816 5814 5811 5808 5804 5801 5797 5794 5792 5788 5783 5778 5774 5767 5763 5757 5750 5744 5737 5732 5725 5718 5711 5705 5697 5687 5679 5668 5658 5647 5634 5622 5609 5596 5581 5571 5558 5547 5536 5527 5519 5512
5820 5817 5815 5813 5810 5807 5804 5800 5797 5795 5789 5786 5782 5777 5772 5766 5761 5755 5749 5743 5736 5729 5723 5716 5709 5701 5692 5683 5674 5664 5654 5643 5631 5619 5605 5593 5578 5561 5546 5536 5524 5516 5509 5504 5499
5816 5813 5811 5809 5807 5803 5800 5796 5794 5788 5785 5780 5775 5770 5765 5759 5754 5748 5742 5735 5728 5720 5712 5706 5698 5690 5681 5671 5660 5651 5638 5625 5612 5593 5585 5569 5556 5544 5529 5519 5510 5504 5499 5493 5487
5812 5810 5807 5804 5801 5798 5795 5792 5787 5783 5778 5774 5768 5764 5758 5752 5748 5740 5733 5726 5718 5711 5702 5693 5685 5679 5669 5660 5650 5638 5627 5615 5594 5582 5571 5555 5535 5525 5518 5509 5501 5495 5489 5483 5477
5807 5805 5801 5798 5796 5793 5790 5785 5781 5777 5772 5767 5762 5756 5752 5746 5739 5731 5725 5718 5710 5702 5694 5683 5676 5668 5658 5647 5636 5619 5610 5596 5580 5566 5547 5535 5518 5508 5504 5499 5492 5486 5479 5473 5467
5802 5799 5796 5792 5788 5785 5782 5779 5774 5770 5765 5760 5754 5749 5742 5737 5731 5723 5716 5710 5702 5693 5684 5675 5664 5656 5644 5632 5623 5610 5593 5574 5556 5541 5529 5521 5511 5499 5494 5488 5483 5476 5470 5464 5458
5796 5794 5791 5787 5783 5779 5775 5771 5767 5763 5759 5754 5747 5741 5736 5730 5723 5716 5708 5700 5691 5684 5675 5664 5654 5642 5631 5618 5603 5587 5573 5557 5543 5532 5516 5504 5503 5493 5487 5480 5474 5467 5460 5454 5448
5790 5788 5785 5781 5778 5773 5769 5764 5761 5755 5751 5746 5739 5733 5728 5721 5714 5707 5698 5689 5681 5673 5663 5653 5641 5629 5618 5604 5591 5576 5559 5541 5525 5518 5507 5495 5493 5485 5479 5471 5465 5459 5453 5446 5438
5784 5781 5778 5774 5770 5766 5761 5757 5752 5747 5743 5737 5731 5725 5719 5712 5704 5696 5688 5680 5672 5663 5652 5642 5630 5616 5600 5592 5578 5561 5544 5531 5516 5504 5498 5489 5484 5477 5472 5463 5457 5451 5445 5438 5430
5776 5772 5770 5766 5762 5758 5753 5748 5744 5740 5735 5728 5723 5716 5710 5703 5695 5686 5678 5671 5662 5653 5643 5632 5621 5608 5594 5578 5560 5545 5529 5515 5502 5495 5488 5484 5477 5472 5466 5457 5451 5445 5438 5430 5422
5769 5765 5761 5757 5754 5751 5746 5740 5736 5731 5725 5718 5713 5707 5701 5693 5685 5677 5669 5660 5651 5641 5632 5622 5611 5596 5582 5565 5549 5534 5519 5507 5496 5487 5481 5478 5471 5465 5459 5451 5443 5436 5428 5421 5414
5760 5757 5754 5751 5746 5743 5737 5733 5727 5720 5714 5709 5703 5697 5691 5684 5676 5667 5658 5649 5640 5631 5620 5610 5598 5585 5571 5553 5537 5523 5508 5498 5491 5482 5476 5470 5465 5459 5452 5444 5436 5431 5424 5416 5407
5753 5749 5744 5742 5738 5734 5729 5723 5717 5711 5705 5699 5693 5688 5682 5675 5667 5657 5648 5639 5630 5620 5609 5599 5585 5572 5560 5541 5524 5515 5502 5491 5484 5476 5470 5465 5459 5453 5448 5440 5431 5425 5417 5408 5398
Wind_Speed
19 17 16 14 10 8 9 11 11 10 12 15 18 19 20 21 21 21 21 20 18 19 19 20 19 17 16 16 20 23 25 28 29 30 33 32 37 36 38 38 41 42 42 43 44
11 10 10 9 8 9 12 13 12 13 15 18 19 18 20 18 16 16 17 17 17 18 19 20 19 19 20 22 25 26 27 30 32 32 34 35 36 37 41 41 44 45 46 47 48
12 13 13 12 12 14 16 16 14 15 18 20 20 18 18 17 18 17 17 15 15 18 21 22 20 21 23 26 27 28 30 31 33 36 38 38 39 42 45 46 47 49 51 52 52
10 10 10 12 13 14 14 15 16 18 20 20 18 17 18 18 19 20 17 16 20 22 21 20 21 24 26 28 30 31 34 37 38 40 42 44 43 45 48 50 50 51 53 55 57
11 11 11 12 13 15 16 16 17 17 17 16 17 18 19 18 18 18 17 21 22 21 21 21 23 25 27 29 32 35 35 39 40 40 44 45 47 48 49 49 51 53 54 56 58
10 10 11 12 13 14 15 16 17 17 17 17 19 19 18 17 19 17 22 21 20 22 25 26 27 28 29 32 34 35 39 41 43 45 44 45 48 52 51 52 54 55 56 57 58
10 11 12 12 12 12 14 15 18 20 20 20 19 19 18 19 17 22 19 21 23 25 28 30 30 31 34 35 37 38 40 40 41 43 46 48 51 52 53 55 57 59 61 62 62
12 12 12 11 12 14 15 18 20 20 21 20 20 19 18 18 22 21 23 24 26 29 30 30 31 34 36 37 36 36 39 41 44 47 49 52 56 56 53 55 56 57 60 64 67
14 13 13 14 14 15 17 17 16 20 19 16 18 18 18 22 20 22 23 26 28 29 30 33 35 36 34 35 38 39 40 48 53 55 53 58 60 61 59 61 61 61 62 65 67
15 15 14 15 16 17 18 18 18 19 18 17 17 18 22 20 21 24 27 29 31 33 35 37 38 37 38 40 43 47 49 52 55 59 59 61 64 63 64 65 65 65 67 69 70
16 16 17 18 20 21 20 17 15 16 19 20 18 21 19 22 23 28 31 33 35 36 38 41 40 41 41 43 47 49 51 54 57 63 63 63 64 63 63 64 67 70 72 73 73
18 19 20 20 20 20 19 17 17 16 16 17 21 19 21 22 26 31 32 33 35 39 39 37 38 41 43 45 49 50 54 58 62 64 67 68 68 70 70 73 77 79 79 80 79
19 21 21 21 21 20 18 18 18 17 18 20 19 21 24 26 29 32 33 36 37 36 37 39 41 43 45 48 51 55 59 63 66 69 71 74 73 78 78 80 84 87 86 84 81
20 21 22 22 21 19 18 18 18 19 18 19 19 24 27 30 33 33 34 38 39 41 41 42 44 47 49 53 56 61 66 70 73 74 76 77 81 83 87 88 85 86 84 82 80
21 22 22 22 21 19 19 20 22 20 21 18 25 27 30 34 35 35 36 38 40 39 42 45 47 50 53 56 61 67 70 73 74 76 79 83 86 89 88 85 83 81 75 70 65
23 23 23 22 21 21 22 23 23 23 21 26 27 32 34 36 35 37 38 40 41 44 44 47 49 53 57 60 66 70 72 74 76 80 84 86 86 85 82 77 71 61 55 52 49
23 23 22 22 22 24 25 24 25 24 26 29 31 34 36 35 36 39 40 41 45 47 49 51 53 57 62 66 70 72 74 76 82 85 84 85 83 79 66 60 52 48 45 43 44
20 21 23 23 24 25 26 28 28 28 29 31 34 37 37 37 39 43 46 47 49 51 52 54 57 61 65 68 70 73 74 78 82 84 82 76 75 62 57 45 41 42 42 43 42
21 23 22 24 25 28 29 29 31 31 32 33 36 38 37 39 43 47 48 50 52 52 54 57 59 63 67 70 71 75 78 82 84 84 81 73 62 59 49 41 38 39 39 38 40
23 26 27 27 26 28 30 31 33 33 34 36 40 38 39 42 45 48 52 54 54 53 54 59 63 66 70 71 71 76 81 83 84 74 71 64 53 48 43 41 40 38 39 38 38
27 27 29 28 29 30 31 31 33 34 36 38 40 39 41 45 47 49 55 54 54 53 57 60 64 68 69 72 76 81 83 82 80 68 60 57 47 42 40 39 39 40 40 39 38
29 30 32 32 33 34 33 32 34 37 36 40 40 41 42 46 49 51 53 52 52 57 59 62 66 67 70 74 79 80 80 77 72 58 46 45 41 40 39 41 41 41 39 41 40
31 30 33 35 35 35 35 36 38 38 37 42 43 44 45 47 50 53 51 52 55 58 61 64 66 69 74 76 79 78 78 75 62 51 44 40 41 40 39 42 42 42 41 40 41
32 31 30 33 34 36 37 37 41 39 41 44 46 46 47 46 50 50 50 53 57 58 62 65 66 68 73 77 80 76 72 63 55 46 41 35 37 36 38 40 40 39 38 39 41
34 33 33 33 35 37 38 41 45 46 48 47 46 47 47 46 47 49 51 56 56 59 63 65 66 70 74 77 77 73 66 53 46 41 36 34 36 35 35 38 40 40 42 44 43
38 37 36 36 38 40 42 44 45 51 51 46 45 46 45 49 50 51 55 55 57 60 63 66 68 71 74 77 76 67 58 50 40 36 33 34 33 33 36 38 41 40 43 44 44
37 39 42 41 43 42 44 46 51 52 45 42 44 44 47 48 51 53 53 55 58 61 63 66 69 73 75 76 74 64 57 44 36 34 32 32 33 33 32 35 40 41 44 44 43
Wind_Direction
300 299 305 315 322 331 334 333 331 329 328 329 330 330 329 327 324 320 317 316 310 307 305 300 301 293 288 276 280 278 271 276 287 282 280 278 275 275 272 269 267 267 268 268 267
307 304 304 307 314 319 323 322 318 320 321 323 329 329 330 331 330 331 332 326 318 314 315 308 294 288 283 282 289 288 278 281 286 285 283 282 282 281 278 276 275 273 271 268 266
314 308 302 302 305 309 311 312 309 312 317 320 324 327 329 328 329 325 323 324 323 317 316 313 300 290 286 290 291 290 287 287 290 290 289 285 284 282 281 279 278 277 276 274 272
345 349 333 313 313 317 318 317 315 315 317 318 320 322 324 319 324 324 323 317 321 321 315 309 304 300 298 297 295 293 292 290 290 289 288 286 285 284 283 282 280 278 276 274 273
348 343 342 337 333 328 321 321 320 318 319 319 316 318 318 318 319 320 323 319 316 316 312 310 307 302 298 294 293 292 291 292 293 295 293 293 291 288 286 284 282 279 277 275 273
346 347 348 342 334 327 324 324 320 317 317 314 314 314 316 315 318 319 318 319 317 311 312 311 307 303 299 297 297 297 299 300 299 298 295 295 295 292 291 288 285 283 279 277 275
343 340 338 335 331 327 327 322 321 320 318 315 313 312 318 319 318 318 316 314 312 312 309 305 304 301 300 300 300 301 300 301 299 295 295 294 291 291 290 287 284 282 280 278 275
331 327 325 323 323 325 326 326 325 323 318 311 313 310 311 316 317 317 316 313 311 312 311 309 306 305 304 302 303 303 303 300 300 303 304 302 299 302 297 289 284 280 275 275 273
328 325 321 321 323 327 326 324 323 330 331 322 315 316 314 315 315 314 314 310 308 307 311 311 309 304 305 307 306 305 305 306 307 305 310 305 304 305 301 298 292 286 281 276 272
333 327 324 320 320 325 327 323 318 321 320 316 318 315 315 315 314 313 313 312 310 309 310 311 312 311 309 311 311 312 310 307 307 308 308 306 303 302 299 294 291 287 282 279 277
326 322 318 319 318 321 320 322 320 316 308 310 313 317 313 314 314 316 315 314 312 310 310 314 315 313 311 313 315 313 309 308 311 308 308 304 301 301 298 294 291 289 287 284 280
318 318 317 315 315 317 320 324 323 322 317 315 314 314 315 315 316 314 314 314 315 316 314 312 313 312 313 315 311 311 310 309 309 311 310 307 307 303 303 301 298 294 290 288 285
313 314 314 315 317 321 321 321 322 319 318 315 315 313 316 316 317 316 317 316 316 315 315 314 314 316 313 313 313 310 314 315 314 313 310 308 308 306 304 299 296 294 293 290 287
305 309 314 316 318 317 319 322 325 322 323 319 312 314 313 311 318 317 317 318 317 315 313 316 316 316 316 317 317 318 317 316 314 312 311 311 308 306 303 300 298 295 292 289 287
302 309 313 313 311 311 314 316 318 319 322 318 315 316 315 318 318 318 317 316 318 317 316 315 316 317 318 319 318 318 317 315 313 311 310 309 308 306 303 302 298 296 294 290 288
302 309 311 311 313 316 316 315 319 321 319 315 316 319 318 318 318 318 320 321 321 318 318 318 320 322 321 318 318 318 317 315 313 311 312 310 309 306 305 302 300 297 294 293 292
305 309 311 314 316 317 317 315 314 315 315 315 318 319 317 317 318 319 319 322 323 323 320 319 320 322 321 321 318 318 317 316 316 315 312 311 308 307 305 303 300 297 298 296 294
309 313 314 315 315 314 313 312 313 314 314 314 314 318 319 316 319 321 320 321 324 323 321 322 323 322 320 320 319 317 318 317 315 314 313 311 309 311 309 307 303 302 300 299 297
306 308 311 312 310 312 312 311 313 313 313 314 316 317 318 320 322 323 322 322 323 322 323 325 322 322 321 319 319 320 319 318 317 315 314 314 310 309 314 311 307 306 304 305 306
303 305 306 309 308 310 311 311 312 313 312 313 317 317 317 321 324 326 325 322 323 322 322 323 323 322 320 320 320 321 321 320 320 317 315 314 312 309 317 314 313 310 308 308 307
306 306 305 309 310 310 310 309 311 311 310 313 316 316 316 319 322 325 324 322 323 322 322 323 322 322 321 322 323 323 322 322 319 319 313 313 318 314 316 314 314 312 314 313 309
306 309 310 311 313 314 312 309 309 309 307 311 314 314 317 319 321 323 322 323 323 322 323 323 322 323 322 323 324 323 323 322 321 320 316 309 318 316 318 316 317 313 315 316 314
302 308 310 309 312 314 313 310 309 307 306 310 311 312 316 318 319 323 323 322 321 322 323 323 324 323 324 325 324 324 324 323 321 316 318 315 318 317 317 315 318 318 320 319 316
300 301 307 308 307 310 312 312 310 307 307 310 311 313 316 317 320 321 322 322 321 321 323 324 324 324 325 325 325 325 324 324 320 318 315 314 312 314 315 316 316 319 323 323 322
296 297 306 308 308 310 313 318 317 313 309 308 309 312 313 316 319 319 321 321 321 322 324 324 325 326 327 325 325 326 326 322 318 314 312 311 311 313 316 317 319 327 328 326 324
296 295 301 301 307 311 315 318 316 314 308 308 309 310 310 314 317 318 319 320 321 323 325 324 325 328 329 326 326 327 325 320 316 309 310 311 313 316 319 322 322 326 324 325 326
293 294 298 301 303 307 313 315 316 315 312 308 311 312 313 314 315 317 318 320 322 325 325 325 328 330 329 327 326 329 325 321 316 309 311 312 315 319 319 320 320 325 326 328 331